Language: 


Des rapports , des résumés tant et plus, au choix de chacun....


Données Historiques de Météogheer
Journalier Rapport pour Février 27, 2018 Unitée:  Métrique    Impériale   Les deux
Suivant Jour »
Journalier Hebdomadaire Mensuel Annuel Sur mesure
  Max: Min: Moyenne:
Température: 2.8 °C -5.7 °C -3.1 °C
Point de rosée: -9.0 °C -13.0 °C -10.8 °C
Humidité: 80% 0% 59%
Vent: 28.0km/h 0.0km/h 12.1km/h
Rafales: 37.0km/h - -
Vent- - ENE
Pression: 1024.9 hPa 0.0 hPa -
Pluie: 0.0 mm    
Historical Graphs
 
 
Données tabulaires pour Février 27, 2018
Heure Température Point de rosée Pression Vent Vent Rafales Humidité Pluie Taux (Horaire) Conditions
00:02 -4.5 °C -11.0 °C 1023.9 hPa NNE 11.6 km/h 11.9 km/h 66% 0.0 mm
00:07 -4.5 °C -11.0 °C 1023.9 hPa North 2.6 km/h 11.9 km/h 66% 0.0 mm
00:12 -4.5 °C -10.0 °C 1023.9 hPa NNE 4.7 km/h 11.6 km/h 67% 0.0 mm
00:17 -4.6 °C -10.0 °C 1023.9 hPa North 7.6 km/h 10.1 km/h 67% 0.0 mm
00:22 -4.7 °C -10.0 °C 1023.9 hPa NNE 6.9 km/h 10.1 km/h 67% 0.0 mm
00:27 -4.7 °C -10.0 °C 1023.9 hPa North 6.9 km/h 10.1 km/h 68% 0.0 mm
00:32 -4.7 °C -10.0 °C 1024.9 hPa NNE 9.7 km/h 11.1 km/h 68% 0.0 mm
00:37 -4.7 °C -10.0 °C 1024.9 hPa NE 9.7 km/h 11.9 km/h 69% 0.0 mm
00:42 -4.8 °C -10.0 °C 1024.9 hPa North 10.1 km/h 11.9 km/h 69% 0.0 mm
00:47 -4.8 °C -10.0 °C 1024.9 hPa NNE 7.9 km/h 12.6 km/h 70% 0.0 mm
00:52 -4.8 °C -10.0 °C 1024.9 hPa NNE 6.4 km/h 12.6 km/h 71% 0.0 mm
00:57 -4.8 °C -10.0 °C 1024.9 hPa NNE 9.7 km/h 12.2 km/h 72% 0.0 mm
01:02 -4.9 °C -10.0 °C 1024.9 hPa NE 7.9 km/h 10.5 km/h 72% 0.0 mm
01:07 -4.9 °C -10.0 °C 1024.9 hPa NNE 5.0 km/h 10.5 km/h 72% 0.0 mm
01:12 -5.1 °C -10.0 °C 1024.9 hPa NNE 10.1 km/h 10.5 km/h 72% 0.0 mm
01:17 -5.1 °C -10.0 °C 1024.9 hPa North 10.5 km/h 11.1 km/h 72% 0.0 mm
01:27 -5.1 °C -10.0 °C 1024.9 hPa NE 6.9 km/h 14.3 km/h 73% 0.0 mm
01:32 -5.1 °C -10.0 °C 1024.9 hPa North 7.9 km/h 11.6 km/h 74% 0.0 mm
01:37 -5.1 °C -10.0 °C 1024.9 hPa NNE 9.0 km/h 10.1 km/h 74% 0.0 mm
01:42 -5.1 °C -10.0 °C 1024.9 hPa NNE 9.7 km/h 11.6 km/h 74% 0.0 mm
01:48 -5.1 °C -9.0 °C 1023.9 hPa NNE 10.5 km/h 11.6 km/h 75% 0.0 mm
01:53 -5.1 °C -9.0 °C 1023.9 hPa NNE 9.0 km/h 11.6 km/h 75% 0.0 mm
01:58 -5.1 °C -9.0 °C 1023.9 hPa NNE 9.7 km/h 11.6 km/h 75% 0.0 mm
02:03 -5.1 °C -9.0 °C 1023.9 hPa NE 9.0 km/h 10.5 km/h 75% 0.0 mm
02:08 -5.1 °C -9.0 °C 1023.9 hPa NNE 5.8 km/h 11.9 km/h 75% 0.0 mm
02:13 -5.1 °C -9.0 °C 1023.9 hPa North 5.5 km/h 11.9 km/h 75% 0.0 mm
02:23 -5.2 °C -9.0 °C 1023.9 hPa NE 5.5 km/h 8.7 km/h 75% 0.0 mm
02:28 -5.3 °C -10.0 °C 1023.9 hPa NNE 6.9 km/h 10.1 km/h 75% 0.0 mm
02:33 -5.3 °C -10.0 °C 1023.9 hPa NNE 5.8 km/h 12.2 km/h 75% 0.0 mm
02:38 -5.2 °C -9.0 °C 1023.9 hPa North 7.6 km/h 12.2 km/h 76% 0.0 mm
02:43 -5.2 °C -9.0 °C 1023.9 hPa NE 3.5 km/h 11.9 km/h 76% 0.0 mm
02:48 -5.2 °C -9.0 °C 1022.9 hPa NNE 5.8 km/h 11.6 km/h 77% 0.0 mm
02:53 -5.2 °C -9.0 °C 1022.9 hPa NNE 9.0 km/h 10.1 km/h 77% 0.0 mm
02:58 -5.2 °C -9.0 °C 1022.9 hPa NE 5.8 km/h 10.1 km/h 77% 0.0 mm
03:03 -5.2 °C -9.0 °C 1022.9 hPa NE 4.7 km/h 9.3 km/h 77% 0.0 mm
03:08 -5.3 °C -9.0 °C 1022.9 hPa North 8.7 km/h 10.1 km/h 77% 0.0 mm
03:13 -5.3 °C -9.0 °C 1022.9 hPa NE 7.2 km/h 10.1 km/h 77% 0.0 mm
03:18 -5.3 °C -9.0 °C 1023.9 hPa North 9.7 km/h 10.5 km/h 77% 0.0 mm
03:23 -5.2 °C -9.0 °C 1023.9 hPa NE 5.5 km/h 10.5 km/h 77% 0.0 mm
03:28 -5.2 °C -9.0 °C 1023.9 hPa NE 6.1 km/h 8.7 km/h 77% 0.0 mm
03:33 -5.2 °C -9.0 °C 1022.9 hPa NNE 4.7 km/h 9.0 km/h 77% 0.0 mm
03:38 -5.3 °C -9.0 °C 1022.9 hPa NNE 6.1 km/h 9.3 km/h 77% 0.0 mm
03:44 -5.3 °C -9.0 °C 1022.9 hPa North 6.9 km/h 10.1 km/h 77% 0.0 mm
03:49 -5.3 °C -9.0 °C 1022.9 hPa North 5.8 km/h 11.6 km/h 77% 0.0 mm
03:54 -5.3 °C -9.0 °C 1022.9 hPa North 5.0 km/h 11.6 km/h 77% 0.0 mm
03:59 -5.3 °C -9.0 °C 1022.9 hPa ENE 5.8 km/h 9.3 km/h 77% 0.0 mm
04:04 -5.3 °C -9.0 °C 1022.9 hPa NE 2.1 km/h 9.3 km/h 77% 0.0 mm
04:09 -5.3 °C -9.0 °C 1022.9 hPa NE 9.7 km/h 12.2 km/h 77% 0.0 mm
04:14 -5.2 °C -9.0 °C 1022.9 hPa NE 10.8 km/h 12.2 km/h 78% 0.0 mm
04:19 -5.2 °C -9.0 °C 1022.9 hPa NE 6.9 km/h 11.9 km/h 79% 0.0 mm
04:24 -5.2 °C -9.0 °C 1022.9 hPa East 9.0 km/h 12.6 km/h 79% 0.0 mm
04:29 -5.2 °C -9.0 °C 1021.9 hPa NE 9.7 km/h 12.6 km/h 79% 0.0 mm
04:34 -5.3 °C -9.0 °C 1021.9 hPa NNE 10.1 km/h 11.9 km/h 79% 0.0 mm
04:39 -5.3 °C -9.0 °C 1021.9 hPa NE 10.1 km/h 12.2 km/h 79% 0.0 mm
04:44 -5.2 °C -9.0 °C 1022.9 hPa NNE 10.5 km/h 12.6 km/h 80% 0.0 mm
04:49 -5.2 °C -9.0 °C 1022.9 hPa NNE 11.6 km/h 13.0 km/h 80% 0.0 mm
04:54 -5.2 °C -9.0 °C 1022.9 hPa NE 10.1 km/h 13.0 km/h 80% 0.0 mm
04:59 -5.1 °C -9.0 °C 1021.9 hPa NNE 9.0 km/h 12.6 km/h 79% 0.0 mm
05:04 -5.1 °C -9.0 °C 1021.9 hPa NNE 9.3 km/h 12.2 km/h 79% 0.0 mm
05:09 -5.2 °C -9.0 °C 1021.9 hPa NNE 9.7 km/h 12.6 km/h 79% 0.0 mm
05:14 -5.2 °C -9.0 °C 1021.9 hPa NE 11.9 km/h 13.0 km/h 79% 0.0 mm
05:19 -5.2 °C -9.0 °C 1021.9 hPa NE 10.1 km/h 13.0 km/h 79% 0.0 mm
05:24 -5.2 °C -9.0 °C 1021.9 hPa NNE 13.0 km/h 13.7 km/h 79% 0.0 mm
05:30 -5.2 °C -9.0 °C 1021.9 hPa NE 9.7 km/h 14.0 km/h 79% 0.0 mm
05:35 -5.2 °C -9.0 °C 1021.9 hPa NNE 10.5 km/h 14.0 km/h 79% 0.0 mm
05:40 -5.2 °C -9.0 °C 1021.9 hPa NNE 11.9 km/h 13.7 km/h 79% 0.0 mm
05:45 -5.2 °C -9.0 °C 1021.9 hPa NE 10.5 km/h 13.7 km/h 79% 0.0 mm
05:50 -5.2 °C -9.0 °C 1021.9 hPa NE 12.2 km/h 13.7 km/h 79% 0.0 mm
05:55 -5.2 °C -9.0 °C 1021.9 hPa NNE 11.6 km/h 13.7 km/h 79% 0.0 mm
06:00 -5.2 °C -9.0 °C 1021.9 hPa NE 10.5 km/h 13.7 km/h 79% 0.0 mm
06:05 -5.2 °C -9.0 °C 1021.9 hPa ENE 11.9 km/h 13.7 km/h 79% 0.0 mm
06:10 -5.2 °C -9.0 °C 1021.9 hPa NNE 10.5 km/h 13.7 km/h 79% 0.0 mm
06:15 -5.2 °C -9.0 °C 1021.9 hPa NE 7.9 km/h 13.7 km/h 79% 0.0 mm
06:20 -5.2 °C -9.0 °C 1021.9 hPa NNE 8.7 km/h 13.7 km/h 79% 0.0 mm
06:25 -5.3 °C -9.0 °C 1021.9 hPa NE 13.0 km/h 13.0 km/h 78% 0.0 mm
06:30 -5.3 °C -9.0 °C 1021.9 hPa NE 10.5 km/h 13.7 km/h 78% 0.0 mm
06:35 -5.3 °C -9.0 °C 1021.9 hPa NE 6.1 km/h 13.7 km/h 78% 0.0 mm
06:40 -5.3 °C -9.0 °C 1021.9 hPa NE 13.0 km/h 13.0 km/h 78% 0.0 mm
06:45 -5.3 °C -9.0 °C 1021.9 hPa NNE 11.9 km/h 13.0 km/h 78% 0.0 mm
06:50 -5.3 °C -9.0 °C 1021.9 hPa NNE 10.5 km/h 13.0 km/h 78% 0.0 mm
06:51 -5.3 °C -9.0 °C 1021.9 hPa NE 9.7 km/h 13.0 km/h 78% 0.0 mm
06:56 -5.3 °C -9.0 °C 1021.9 hPa NE 9.7 km/h 12.2 km/h 78% 0.0 mm
07:01 -5.3 °C -9.0 °C 1021.9 hPa ENE 7.6 km/h 10.5 km/h 78% 0.0 mm
07:06 -5.4 °C -9.0 °C 1021.9 hPa NE 5.5 km/h 10.5 km/h 77% 0.0 mm
07:12 -5.5 °C -10.0 °C 1021.9 hPa ENE 6.1 km/h 10.1 km/h 77% 0.0 mm
07:17 -5.6 °C -10.0 °C 1021.9 hPa ENE 7.9 km/h 11.1 km/h 77% 0.0 mm
07:22 -5.6 °C -10.0 °C 1021.9 hPa ENE 7.6 km/h 11.1 km/h 77% 0.0 mm
07:27 -5.7 °C -10.0 °C 1021.9 hPa NE 6.1 km/h 9.0 km/h 77% 0.0 mm
07:32 -5.7 °C -10.0 °C 1020.9 hPa NE 9.3 km/h 10.5 km/h 77% 0.0 mm
07:37 -5.7 °C -10.0 °C 1020.9 hPa ENE 11.9 km/h 11.9 km/h 77% 0.0 mm
07:42 -5.6 °C -10.0 °C 1020.9 hPa ENE 9.3 km/h 12.6 km/h 78% 0.0 mm
07:47 -5.6 °C -10.0 °C 1021.9 hPa ENE 10.1 km/h 12.6 km/h 78% 0.0 mm
07:52 -5.5 °C -10.0 °C 1021.9 hPa NE 9.7 km/h 13.0 km/h 78% 0.0 mm
07:57 -5.4 °C -9.0 °C 1021.9 hPa ENE 6.9 km/h 15.4 km/h 78% 0.0 mm
08:02 -5.4 °C -9.0 °C 1021.9 hPa ENE 8.7 km/h 15.4 km/h 78% 0.0 mm
08:09 0.0 °C -9.0 °C 0.0 hPa NE 10.1 km/h 11.9 km/h 0% 0.0 mm
08:14 -4.9 °C -9.0 °C 1021.9 hPa NE 10.5 km/h 13.7 km/h 76% 0.0 mm
08:19 -4.9 °C -9.0 °C 1021.9 hPa NE 11.1 km/h 13.7 km/h 76% 0.0 mm
08:24 -4.8 °C -9.0 °C 1021.9 hPa NE 11.9 km/h 13.0 km/h 76% 0.0 mm
08:29 -4.6 °C -9.0 °C 1021.9 hPa NE 9.3 km/h 14.0 km/h 74% 0.0 mm
08:34 -4.5 °C -9.0 °C 1021.9 hPa ENE 9.0 km/h 14.0 km/h 74% 0.0 mm
08:39 -4.5 °C -9.0 °C 1021.9 hPa NE 10.1 km/h 13.7 km/h 74% 0.0 mm
08:44 -4.5 °C -9.0 °C 1021.9 hPa NNE 10.1 km/h 13.7 km/h 74% 0.0 mm
08:49 -4.5 °C -9.0 °C 1021.9 hPa NE 12.2 km/h 17.7 km/h 74% 0.0 mm
08:54 -4.5 °C -9.0 °C 1021.9 hPa NE 9.7 km/h 17.7 km/h 74% 0.0 mm
08:59 -4.5 °C -9.0 °C 1022.9 hPa ENE 9.7 km/h 13.7 km/h 74% 0.0 mm
09:04 -4.5 °C -9.0 °C 1022.9 hPa ENE 15.4 km/h 16.9 km/h 74% 0.0 mm
09:09 -4.5 °C -9.0 °C 1022.9 hPa ENE 12.6 km/h 19.8 km/h 74% 0.0 mm
09:14 -4.5 °C -9.0 °C 1022.9 hPa ENE 18.0 km/h 21.2 km/h 74% 0.0 mm
09:19 -4.5 °C -9.0 °C 1022.9 hPa NE 19.5 km/h 21.2 km/h 74% 0.0 mm
09:25 -4.5 °C -9.0 °C 1022.9 hPa East 19.8 km/h 20.1 km/h 74% 0.0 mm
09:30 -4.5 °C -9.0 °C 1022.9 hPa East 14.3 km/h 20.1 km/h 74% 0.0 mm
09:35 -4.5 °C -9.0 °C 1022.9 hPa ENE 10.5 km/h 20.1 km/h 74% 0.0 mm
09:40 -4.5 °C -9.0 °C 1022.9 hPa ENE 15.1 km/h 20.9 km/h 74% 0.0 mm
09:45 -4.5 °C -9.0 °C 1022.9 hPa ENE 15.4 km/h 20.9 km/h 74% 0.0 mm
09:50 -4.5 °C -9.0 °C 1022.9 hPa ENE 11.9 km/h 17.7 km/h 74% 0.0 mm
09:55 -2.7 °C -11.0 °C 1022.9 hPa NE 16.6 km/h 17.7 km/h 53% 0.0 mm
10:00 -2.7 °C -11.0 °C 1021.9 hPa ENE 15.4 km/h 21.6 km/h 53% 0.0 mm
10:05 -2.6 °C -12.0 °C 1021.9 hPa East 13.0 km/h 21.6 km/h 51% 0.0 mm
10:10 -2.6 °C -12.0 °C 1021.9 hPa ENE 19.8 km/h 19.8 km/h 51% 0.0 mm
10:15 -2.6 °C -12.0 °C 1021.9 hPa ENE 19.8 km/h 19.8 km/h 51% 0.0 mm
10:20 -2.6 °C -12.0 °C 1021.9 hPa ENE 19.8 km/h 19.8 km/h 51% 0.0 mm
10:25 -2.6 °C -12.0 °C 1021.9 hPa ENE 19.8 km/h 19.8 km/h 51% 0.0 mm
10:30 -2.6 °C -12.0 °C 1021.9 hPa ENE 19.8 km/h 19.8 km/h 51% 0.0 mm
10:35 -2.6 °C -12.0 °C 1021.9 hPa ENE 20.1 km/h 20.1 km/h 51% 0.0 mm
10:40 -2.6 °C -12.0 °C 1021.9 hPa NE 16.9 km/h 20.1 km/h 51% 0.0 mm
10:46 2.8 °C -12.0 °C 1021.9 hPa NE 19.8 km/h 29.1 km/h 32% 0.0 mm
10:51 1.1 °C -12.0 °C 1021.9 hPa ENE 16.3 km/h 29.1 km/h 36% 0.0 mm
10:56 0.1 °C -12.0 °C 1021.9 hPa ENE 16.6 km/h 28.5 km/h 39% 0.0 mm
11:01 -0.5 °C -13.0 °C 1021.9 hPa East 18.0 km/h 28.5 km/h 41% 0.0 mm
11:06 -0.6 °C -13.0 °C 1021.9 hPa East 26.7 km/h 26.7 km/h 41% 0.0 mm
11:11 -0.8 °C -13.0 °C 1021.9 hPa NE 16.6 km/h 26.7 km/h 42% 0.0 mm
11:16 -0.9 °C -13.0 °C 1021.9 hPa NE 17.7 km/h 26.7 km/h 42% 0.0 mm
11:21 -0.9 °C -13.0 °C 1021.9 hPa NE 16.3 km/h 24.8 km/h 42% 0.0 mm
11:26 -0.8 °C -13.0 °C 1021.9 hPa ENE 17.7 km/h 28.0 km/h 42% 0.0 mm
11:31 -0.8 °C -13.0 °C 1021.9 hPa NE 23.3 km/h 28.5 km/h 42% 0.0 mm
11:36 -0.8 °C -13.0 °C 1021.9 hPa ENE 15.4 km/h 28.5 km/h 42% 0.0 mm
11:41 -0.7 °C -13.0 °C 1021.9 hPa NE 20.1 km/h 28.5 km/h 42% 0.0 mm
11:46 -0.7 °C -13.0 °C 1020.9 hPa ENE 24.8 km/h 36.0 km/h 41% 0.0 mm
11:51 -0.7 °C -13.0 °C 1020.9 hPa NNE 12.6 km/h 36.0 km/h 42% 0.0 mm
11:56 -0.6 °C -13.0 °C 1020.9 hPa NE 14.0 km/h 24.8 km/h 41% 0.0 mm
12:01 -0.5 °C -13.0 °C 1020.9 hPa East 16.3 km/h 25.6 km/h 41% 0.0 mm
12:06 -0.5 °C -13.0 °C 1020.9 hPa NE 17.2 km/h 25.6 km/h 41% 0.0 mm
12:11 -0.2 °C -12.0 °C 1020.9 hPa ENE 16.3 km/h 24.5 km/h 41% 0.0 mm
12:16 0.0 °C -12.0 °C 1019.9 hPa NE 17.2 km/h 24.5 km/h 41% 0.0 mm
12:21 -0.1 °C -12.0 °C 1019.9 hPa ENE 26.7 km/h 30.6 km/h 41% 0.0 mm
12:27 0.0 °C -12.0 °C 1019.9 hPa NE 16.3 km/h 30.6 km/h 41% 0.0 mm
12:32 0.1 °C -11.0 °C 1020.9 hPa NE 13.7 km/h 26.7 km/h 41% 0.0 mm
12:37 0.1 °C -11.0 °C 1020.9 hPa NE 20.1 km/h 28.0 km/h 42% 0.0 mm
12:42 0.1 °C -11.0 °C 1020.9 hPa NE 25.6 km/h 31.4 km/h 41% 0.0 mm
12:47 -0.1 °C -12.0 °C 1020.9 hPa NE 27.7 km/h 31.4 km/h 41% 0.0 mm
12:52 0.0 °C -12.0 °C 1020.9 hPa ENE 16.6 km/h 27.7 km/h 41% 0.0 mm
12:57 -0.4 °C -13.0 °C 1020.9 hPa NE 16.9 km/h 28.8 km/h 41% 0.0 mm
13:02 -0.8 °C -13.0 °C 1020.9 hPa NE 21.2 km/h 33.1 km/h 41% 0.0 mm
13:07 -0.5 °C -13.0 °C 1020.9 hPa ENE 13.7 km/h 33.1 km/h 41% 0.0 mm
13:12 0.0 °C -12.0 °C 1020.9 hPa ENE 9.7 km/h 26.2 km/h 41% 0.0 mm
13:17 0.1 °C -11.0 °C 1020.9 hPa NE 28.0 km/h 28.5 km/h 41% 0.0 mm
13:22 0.2 °C -11.0 °C 1020.9 hPa ENE 27.4 km/h 31.4 km/h 41% 0.0 mm
13:27 -0.1 °C -12.0 °C 1020.9 hPa ENE 18.0 km/h 31.4 km/h 41% 0.0 mm
13:32 -0.1 °C -12.0 °C 1020.9 hPa ENE 20.6 km/h 30.9 km/h 41% 0.0 mm
13:37 -0.1 °C -12.0 °C 1020.9 hPa NE 20.6 km/h 28.5 km/h 41% 0.0 mm
13:42 -0.2 °C -12.0 °C 1020.9 hPa ENE 25.3 km/h 32.0 km/h 41% 0.0 mm
13:47 -0.3 °C -13.0 °C 1020.9 hPa NE 23.3 km/h 32.0 km/h 41% 0.0 mm
13:52 -0.3 °C -13.0 °C 1020.9 hPa NE 14.0 km/h 25.6 km/h 41% 0.0 mm
13:57 -0.5 °C -13.0 °C 1020.9 hPa ENE 20.1 km/h 30.6 km/h 41% 0.0 mm
14:02 -0.4 °C -13.0 °C 1019.9 hPa East 15.8 km/h 30.6 km/h 41% 0.0 mm
14:07 -0.5 °C -13.0 °C 1019.9 hPa ENE 12.2 km/h 23.8 km/h 41% 0.0 mm
14:12 -0.5 °C -13.0 °C 1019.9 hPa NE 17.7 km/h 19.8 km/h 41% 0.0 mm
14:17 -0.6 °C -13.0 °C 1019.9 hPa NE 16.3 km/h 21.6 km/h 41% 0.0 mm
14:22 -0.5 °C -13.0 °C 1019.9 hPa ENE 12.2 km/h 21.6 km/h 41% 0.0 mm
14:27 -0.4 °C -13.0 °C 1019.9 hPa NE 13.0 km/h 21.2 km/h 41% 0.0 mm
14:32 0.0 °C -12.0 °C 1019.9 hPa NNE 24.8 km/h 28.0 km/h 41% 0.0 mm
14:37 0.3 °C -11.0 °C 1019.9 hPa NE 16.6 km/h 28.0 km/h 40% 0.0 mm
14:42 0.0 °C -13.0 °C 1019.9 hPa ENE 21.2 km/h 25.3 km/h 40% 0.0 mm
14:47 -0.3 °C -13.0 °C 1018.8 hPa ENE 12.2 km/h 25.3 km/h 41% 0.0 mm
14:52 -0.5 °C -13.0 °C 1018.8 hPa NE 14.0 km/h 25.3 km/h 40% 0.0 mm
14:57 -0.5 °C -13.0 °C 1018.8 hPa NE 20.9 km/h 24.8 km/h 40% 0.0 mm
15:02 -0.4 °C -13.0 °C 1018.8 hPa East 13.7 km/h 28.5 km/h 40% 0.0 mm
15:07 0.0 °C -13.0 °C 1018.8 hPa East 19.5 km/h 28.5 km/h 40% 0.0 mm
15:12 0.3 °C -11.0 °C 1018.8 hPa East 13.0 km/h 24.5 km/h 40% 0.0 mm
15:17 0.3 °C -11.0 °C 1018.8 hPa ENE 13.7 km/h 24.5 km/h 40% 0.0 mm
15:22 0.2 °C -12.0 °C 1018.8 hPa East 15.8 km/h 20.1 km/h 40% 0.0 mm
15:27 0.5 °C -11.0 °C 1018.8 hPa ENE 14.0 km/h 20.1 km/h 40% 0.0 mm
15:32 1.0 °C -11.0 °C 1018.8 hPa East 16.9 km/h 16.9 km/h 40% 0.0 mm
15:37 1.3 °C -11.0 °C 1018.8 hPa ENE 12.6 km/h 21.2 km/h 40% 0.0 mm
15:42 1.3 °C -11.0 °C 1018.8 hPa ENE 23.8 km/h 29.1 km/h 39% 0.0 mm
15:47 1.3 °C -11.0 °C 1018.8 hPa NE 16.9 km/h 29.1 km/h 39% 0.0 mm
15:52 1.2 °C -11.0 °C 1018.8 hPa ENE 16.3 km/h 28.5 km/h 38% 0.0 mm
15:57 1.1 °C -12.0 °C 1018.8 hPa NE 16.6 km/h 28.0 km/h 38% 0.0 mm
16:02 1.2 °C -11.0 °C 1018.8 hPa ENE 15.8 km/h 23.3 km/h 39% 0.0 mm
16:07 1.4 °C -11.0 °C 1018.8 hPa ENE 17.2 km/h 23.3 km/h 39% 0.0 mm
16:12 1.3 °C -11.0 °C 1018.8 hPa NE 23.8 km/h 28.5 km/h 38% 0.0 mm
16:17 0.6 °C -12.0 °C 1018.8 hPa ENE 21.2 km/h 33.1 km/h 37% 0.0 mm
16:22 0.3 °C -12.0 °C 1018.8 hPa NE 25.3 km/h 33.1 km/h 38% 0.0 mm
16:27 0.2 °C -12.0 °C 1018.8 hPa NE 23.3 km/h 30.9 km/h 38% 0.0 mm
16:32 0.0 °C -13.0 °C 1018.8 hPa NE 16.3 km/h 26.2 km/h 39% 0.0 mm
16:37 0.0 °C -13.0 °C 1018.8 hPa NE 16.6 km/h 23.3 km/h 40% 0.0 mm
16:42 0.3 °C -11.0 °C 1018.8 hPa ENE 15.4 km/h 21.2 km/h 40% 0.0 mm
16:47 0.4 °C -11.0 °C 1018.8 hPa NE 16.9 km/h 22.7 km/h 40% 0.0 mm
16:52 0.2 °C -12.0 °C 1018.8 hPa NE 18.3 km/h 23.3 km/h 40% 0.0 mm
16:57 -0.1 °C -13.0 °C 1018.8 hPa ENE 16.9 km/h 28.5 km/h 40% 0.0 mm
17:03 -0.2 °C -13.0 °C 1018.8 hPa ENE 16.6 km/h 28.5 km/h 40% 0.0 mm
17:08 -0.1 °C -13.0 °C 1018.8 hPa ENE 17.7 km/h 26.2 km/h 40% 0.0 mm
17:13 0.1 °C -12.0 °C 1018.8 hPa NE 17.7 km/h 24.8 km/h 40% 0.0 mm
17:18 0.3 °C -11.0 °C 1018.8 hPa NE 16.9 km/h 25.9 km/h 40% 0.0 mm
17:23 0.4 °C -11.0 °C 1018.8 hPa ENE 19.5 km/h 37.0 km/h 40% 0.0 mm
17:28 0.2 °C -12.0 °C 1018.8 hPa ENE 27.7 km/h 37.0 km/h 40% 0.0 mm
17:33 -0.2 °C -12.0 °C 1018.2 hPa NNE 17.2 km/h 33.5 km/h 41% 0.0 mm
17:34 -0.3 °C -13.0 °C 1018.2 hPa North 16.6 km/h 33.5 km/h 41% 0.0 mm
17:40 -0.5 °C -13.0 °C 1018.2 hPa ENE 20.6 km/h 28.0 km/h 41% 0.0 mm
17:45 -0.7 °C -13.0 °C 1018.8 hPa NE 13.0 km/h 26.2 km/h 41% 0.0 mm
17:50 -0.9 °C -13.0 °C 1018.8 hPa NE 12.6 km/h 26.2 km/h 41% 0.0 mm
17:55 -1.0 °C -13.0 °C 1018.8 hPa NE 13.7 km/h 20.9 km/h 42% 0.0 mm
18:00 -1.0 °C -13.0 °C 1018.8 hPa NNE 14.0 km/h 17.7 km/h 42% 0.0 mm
18:05 -1.2 °C -13.0 °C 1018.8 hPa NE 14.0 km/h 25.6 km/h 42% 0.0 mm
18:10 -1.2 °C -13.0 °C 1018.8 hPa NE 16.9 km/h 25.6 km/h 43% 0.0 mm
18:15 -1.3 °C -13.0 °C 1018.8 hPa NE 17.7 km/h 24.8 km/h 43% 0.0 mm
18:20 -1.4 °C -13.0 °C 1018.8 hPa NE 24.8 km/h 28.5 km/h 43% 0.0 mm
18:25 -1.5 °C -13.0 °C 1018.8 hPa NE 19.8 km/h 28.5 km/h 44% 0.0 mm
18:30 -1.6 °C -13.0 °C 1018.8 hPa NE 14.0 km/h 24.5 km/h 44% 0.0 mm
18:35 -1.7 °C -12.0 °C 1018.8 hPa NE 15.4 km/h 24.5 km/h 45% 0.0 mm
18:40 -1.7 °C -12.0 °C 1018.8 hPa NE 15.1 km/h 20.9 km/h 45% 0.0 mm
18:45 -1.8 °C -12.0 °C 1018.2 hPa NE 14.0 km/h 25.3 km/h 45% 0.0 mm
18:50 -1.9 °C -12.0 °C 1018.2 hPa NNE 13.0 km/h 25.3 km/h 46% 0.0 mm
18:55 -2.0 °C -12.0 °C 1018.2 hPa NE 12.6 km/h 17.7 km/h 47% 0.0 mm
19:00 -2.0 °C -12.0 °C 1018.2 hPa ENE 13.7 km/h 17.2 km/h 48% 0.0 mm
19:05 -2.1 °C -12.0 °C 1018.2 hPa NE 14.0 km/h 16.9 km/h 48% 0.0 mm
19:10 -2.1 °C -12.0 °C 1018.2 hPa NE 12.6 km/h 19.5 km/h 49% 0.0 mm
19:15 -2.2 °C -12.0 °C 1018.2 hPa NE 13.0 km/h 19.5 km/h 49% 0.0 mm
19:21 -2.3 °C -12.0 °C 1018.2 hPa NE 12.6 km/h 18.3 km/h 50% 0.0 mm
19:26 -2.3 °C -12.0 °C 1018.2 hPa NE 13.0 km/h 18.3 km/h 50% 0.0 mm
19:31 -2.4 °C -12.0 °C 1018.2 hPa NE 12.2 km/h 16.3 km/h 51% 0.0 mm
19:36 -2.5 °C -12.0 °C 1018.2 hPa NE 10.5 km/h 15.8 km/h 51% 0.0 mm
19:41 -2.7 °C -12.0 °C 1018.2 hPa NE 10.5 km/h 15.8 km/h 52% 0.0 mm
19:46 -2.7 °C -11.0 °C 1018.2 hPa NE 11.9 km/h 14.0 km/h 53% 0.0 mm
19:51 -2.7 °C -11.0 °C 1018.2 hPa NE 9.3 km/h 15.8 km/h 53% 0.0 mm
19:56 -2.7 °C -11.0 °C 1018.2 hPa NE 13.0 km/h 15.8 km/h 54% 0.0 mm
20:01 -2.8 °C -11.0 °C 1018.2 hPa NE 11.6 km/h 14.0 km/h 54% 0.0 mm
20:06 -2.8 °C -11.0 °C 1018.2 hPa NE 10.5 km/h 14.0 km/h 54% 0.0 mm
20:11 -2.9 °C -11.0 °C 1018.2 hPa NNE 7.9 km/h 13.0 km/h 55% 0.0 mm
20:16 -3.0 °C -11.0 °C 1018.2 hPa ENE 9.7 km/h 13.0 km/h 55% 0.0 mm
20:21 -3.2 °C -11.0 °C 1018.2 hPa NE 7.9 km/h 10.5 km/h 56% 0.0 mm
20:26 -3.2 °C -11.0 °C 1018.2 hPa NE 7.9 km/h 10.1 km/h 56% 0.0 mm
20:31 -3.3 °C -11.0 °C 1018.2 hPa NE 8.7 km/h 10.1 km/h 56% 0.0 mm
20:36 -3.4 °C -11.0 °C 1018.2 hPa NE 8.7 km/h 10.1 km/h 57% 0.0 mm
20:41 -3.4 °C -11.0 °C 1018.2 hPa NE 9.3 km/h 10.1 km/h 57% 0.0 mm
20:46 -3.5 °C -11.0 °C 1018.2 hPa ENE 5.8 km/h 10.1 km/h 58% 0.0 mm
20:51 -3.6 °C -11.0 °C 1018.2 hPa ENE 6.1 km/h 9.3 km/h 58% 0.0 mm
20:56 -3.7 °C -11.0 °C 1018.2 hPa NE 5.8 km/h 7.9 km/h 58% 0.0 mm
21:01 -3.9 °C -11.0 °C 1018.2 hPa ENE 6.1 km/h 6.4 km/h 58% 0.0 mm
21:06 -4.0 °C -11.0 °C 1018.2 hPa ENE 6.1 km/h 8.7 km/h 59% 0.0 mm
21:11 -4.0 °C -11.0 °C 1018.2 hPa Calm   8.7 km/h 59% 0.0 mm
21:16 -4.1 °C -11.0 °C 1018.2 hPa NNE 6.4 km/h 7.9 km/h 59% 0.0 mm
21:21 -4.2 °C -11.0 °C 1018.2 hPa Calm   7.2 km/h 59% 0.0 mm
21:26 -4.4 °C -12.0 °C 1018.2 hPa NNE 6.4 km/h 6.9 km/h 59% 0.0 mm
21:31 -4.6 °C -12.0 °C 1018.2 hPa Calm   6.4 km/h 59% 0.0 mm
21:36 -4.7 °C -12.0 °C 1018.2 hPa North 7.9 km/h 7.9 km/h 59% 0.0 mm
21:41 -4.8 °C -12.0 °C 1018.2 hPa NNE 6.9 km/h 9.7 km/h 61% 0.0 mm
21:46 -4.8 °C -12.0 °C 1018.2 hPa NNE 6.1 km/h 9.7 km/h 62% 0.0 mm
21:51 -4.8 °C -11.0 °C 1018.2 hPa North 9.7 km/h 9.7 km/h 63% 0.0 mm
21:57 -4.9 °C -11.0 °C 1018.2 hPa NNE 10.1 km/h 10.5 km/h 64% 0.0 mm
22:02 -4.9 °C -11.0 °C 1018.2 hPa NNE 8.7 km/h 10.5 km/h 65% 0.0 mm
22:07 -4.9 °C -11.0 °C 1018.2 hPa Calm   10.5 km/h 65% 0.0 mm
22:12 -5.0 °C -11.0 °C 1018.2 hPa Calm   10.1 km/h 65% 0.0 mm
22:17 -5.0 °C -11.0 °C 1018.2 hPa NE 5.0 km/h 10.1 km/h 65% 0.0 mm
22:22 -5.0 °C -11.0 °C 1018.2 hPa NE 6.9 km/h 10.1 km/h 66% 0.0 mm
22:27 -4.9 °C -11.0 °C 1018.2 hPa ENE 5.5 km/h 9.7 km/h 66% 0.0 mm
22:32 -4.8 °C -11.0 °C 1018.2 hPa NE 6.1 km/h 11.6 km/h 66% 0.0 mm
22:37 -4.8 °C -11.0 °C 1018.2 hPa ENE 5.8 km/h 11.6 km/h 66% 0.0 mm
22:42 -4.8 °C -11.0 °C 1018.2 hPa NE 6.1 km/h 7.9 km/h 65% 0.0 mm
22:47 -4.9 °C -11.0 °C 1018.2 hPa ENE 3.2 km/h 6.9 km/h 65% 0.0 mm
22:52 -5.1 °C -11.0 °C 1018.2 hPa ENE 5.5 km/h 6.1 km/h 64% 0.0 mm
22:57 -5.1 °C -11.0 °C 1018.2 hPa ENE 7.6 km/h 7.6 km/h 65% 0.0 mm
23:03 -5.1 °C -11.0 °C 1018.2 hPa NE 6.4 km/h 7.6 km/h 65% 0.0 mm
23:08 -5.2 °C -11.0 °C 1018.2 hPa Calm   7.2 km/h 65% 0.0 mm
23:13 -5.2 °C -11.0 °C 1018.2 hPa NE 4.0 km/h 6.9 km/h 65% 0.0 mm
23:23 -5.2 °C -11.0 °C 1018.2 hPa NE 4.7 km/h 7.6 km/h 65% 0.0 mm
23:28 -5.3 °C -11.0 °C 1018.2 hPa Calm   6.4 km/h 65% 0.0 mm
23:33 -5.3 °C -11.0 °C 1018.2 hPa ENE 6.4 km/h 7.6 km/h 65% 0.0 mm
23:38 -5.3 °C -11.0 °C 1018.2 hPa ENE 6.4 km/h 9.0 km/h 66% 0.0 mm
23:43 -5.2 °C -11.0 °C 1018.2 hPa NE 6.4 km/h 9.0 km/h 66% 0.0 mm
23:48 -5.2 °C -11.0 °C 1018.2 hPa NE 5.8 km/h 9.0 km/h 66% 0.0 mm
23:53 -5.3 °C -11.0 °C 1018.2 hPa NE 5.8 km/h 7.9 km/h 66% 0.0 mm
23:58 -5.3 °C -11.0 °C 1018.2 hPa ENE 2.6 km/h 6.4 km/h 65% 0.0 mm
Données Historique de Météo Turbie

Mise a jour : 18/06/2018 00:15:12
Généré par Cumulus 1.9.4 (1099)